Regional Weather Roundup
Issued by NWS Newport/Morehead, NC

Current Version | Previous Version | Graphics & Text | Print | Product List | Glossary Off
Versions: 1 2 3 4 5 6 7 8 9 10 11 12 13 14 15 16 17 18 19 20 21 22 23 24 25 26 27 28 29 30 31 32 33 34 35 36 37 38 39 40 41 42 43 44 45 46 47 48 49 50

000
ASUS42 KMHX 220410
RWRMHX
WEATHER ROUNDUP FOR EASTERN NORTH CAROLINA
NATIONAL WEATHER SERVICE NEWPORT/MOREHEAD CITY NC
1200 AM EDT FRI AUG 22 2014

NOTE: "FAIR" INDICATES FEW OR NO CLOUDS BELOW 12,000 FEET
WITH NO SIGNIFICANT WEATHER AND/OR OBSTRUCTIONS TO VISIBILITY

NCZ015>017-031-032-045>047-102-103-220500-
NORTH COAST

CITY           SKY/WX    TMP DP  RH WIND       PRES   REMARKS
EDENTON        MOCLDY    79  77  94 CALM      30.00F
ELIZABETH CITY PTCLDY    78  76  93 SW5       30.00F FOG
KITTY HAWK     MOCLDY    80  74  84 CALM      30.00F
MANTEO         MOCLDY    81  75  83 CALM      30.01F

$$

NCZ045>047-081-094-103-104-220500-
CENTRAL COAST

CITY           SKY/WX    TMP DP  RH WIND       PRES   REMARKS
FRISCO         PTCLDY    79  79 100 SW5       30.01F
SWANQUARTER      N/A     81 N/A N/A W2        29.97S

$$

NCZ095-097-098-100-101-220500-
SOUTHERN COAST

CITY           SKY/WX    TMP DP  RH WIND       PRES   REMARKS
BEAUFORT       MOCLDY    81  78  91 SW6       30.02F
CEDAR ISLAND     N/A     79 N/A N/A SW2       30.06S
JACKSONVILLE   CLEAR     77  74  90 W6        30.02F
NEWPORT        NOT AVBL
PINEY ISLAND   MOCLDY    79  77  94 SW5       30.01F
WILMINGTON     PTCLDY    77  74  90 CALM      30.04F


$$

NCZ011>013-027>030-043-044-078>080-089-090>093-098-220500-
COASTAL PLAIN

CITY           SKY/WX    TMP DP  RH WIND       PRES   REMARKS
AHOSKIE        CLOUDY    75  73  94 CALM      30.01S
CLINTON        MOCLDY    75  73  92 CALM      30.03F
ELIZABETHTOWN  PTCLDY    78  74  88 CALM      30.04S
GOLDSBORO      CLOUDY    79  79 100 CALM      30.00F
GREENVILLE     CLOUDY    77  77 100 W3        30.03S FOG
HAVELOCK       MOCLDY    77  74  90 S3        30.03F
KENANSVILLE    MOCLDY    73  72  94 CALM      30.03F FOG
KINSTON        MOCLDY    79  74  85 CALM      30.02F
NEW BERN       PTCLDY    78  74  87 CALM      30.03F
RICHLANDS      PTCLDY    77  72  83 CALM      30.03F
ROANOKE RAPIDS NOT AVBL
ROCKY MOUNT    CLOUDY    76  74  93 CALM      30.02F FOG
WASHINGTON     MOCLDY    78  75  92 CALM      30.01F
WHITEVILLE     PTCLDY    76  74  94 CALM      30.04F

$$

AMZ130-135-150-152-154-156-158-170-250-252-270-ANZ085-086-088-633-658-670-220500-
MARINE OBSERVATIONS

STATION/POSITION TIME  TEMP    WIND        PRES    WAVE   SWELL
                       AIR SEA DIR/SP/G            HT/PER HT/PER
                 (UTC) (F)     (DEG/KT/KT) (MB)    (FT/S) (FT/S)
CHESAPEAKE LIGHT 0300   79     180/  7/  8 1016.6
BUOY 44014       0400   78 78  140/  4/  4 1015.8    2/ 7   2/ 7
DUCK             0400   82 81  220/  4/  5 1015.3
2E DUCK          0400                        N/A     2/ 7
OREGON INLET     0400   82 83  210/  5/  6 1016.0
BUOY 44095       0400      81                N/A     2/ 8
20E OREGON INLET NOT AVBL
HATTERAS CG      0400   81 83  230/  4/  6 1016.7
DIAMOND BUOY     0400   81     220/  8/ 10 1016.3    2/ 9   2/ 9
CAPE LOOKOUT     0300   82     220/  7/  9 1016.8
BEAUFORT LAB     0400   82 83  220/  2/  4 1016.3
30 SE NEW RIVER  0400   83 83  260/ 10/ 10 1016.4    2/ 9   2/ 9
5 SE WRIGHTSVILL 0400   78 83  250/ 10/ 10   N/A
BUOY 41002       0328   82 82  250/  8/ 10 1019.5    2/ 8   2/ 8
BUOY 41004       0400   84 85  200/  8/ 10 1017.7    2/ 8   2/ 8

$$



USA.gov is the U.S. government's official web portal to all federal, state and local government web resources and services.